GFSNW_con_lsi_288.txt.gz
Lid_Strength_Index
-2 -1 -1 -1 -1 -1 0 4 9 2 1 10 11 13 11 9 11 10 11 12 13 13 13 13 13 13 13 10 10 12 12 14 16 15 13 12 14 15 15 18 19 20 21 19
-2 -1 -1 -1 -1 -1 2 7 7 4 4 15 12 10 10 9 10 11 11 13 12 12 12 14 13 13 10 9 10 11 11 14 18 17 15 15 15 14 14 14 15 19 21 19
-2 -2 -1 -1 -1 -1 1 8 12 8 7 8 11 11 11 11 9 11 10 11 11 12 12 11 13 13 11 10 10 7 9 13 15 17 16 14 15 14 13 13 18 18 18 18
-2 -2 -1 -1 -1 -1 2 8 11 9 14 11 11 11 11 12 13 11 11 12 12 12 14 13 13 12 12 10 9 10 10 14 14 14 14 14 14 14 13 14 13 16 16 16
-2 -2 -2 -1 -1 -1 3 9 10 9 11 11 12 12 12 12 14 13 15 15 13 15 15 13 14 13 12 12 11 11 11 15 14 15 14 14 15 14 12 12 14 14 16 16
-1 -1 -1 -2 -1 -1 5 5 6 9 11 11 12 12 12 12 12 12 11 13 13 14 13 12 11 11 11 11 12 12 13 15 16 18 16 15 16 16 14 14 14 12 15 13
-1 -1 -1 -1 -1 -1 3 4 6 10 13 11 12 12 11 11 11 14 11 11 12 11 9 10 9 10 11 11 12 11 13 14 16 20 18 22 17 17 15 14 15 15 15 15
-1 -1 -1 -1 -1 -1 4 4 6 10 13 11 12 12 12 10 10 12 11 11 10 8 10 13 14 14 13 13 12 12 12 14 18 18 20 17 18 16 15 14 15 15 16 15
-1 -1 -1 -1 -1 -1 3 5 4 7 11 12 12 12 12 12 13 13 12 9 8 10 12 14 17 17 16 16 15 12 12 13 14 17 19 20 18 16 14 14 17 16 15 15
-1 -1 -1 -1 -1 -1 3 5 3 6 11 10 11 12 12 12 12 13 13 12 11 10 12 14 15 15 14 16 16 16 15 15 15 16 17 17 17 15 14 17 17 15 14 14
-0 -1 -1 -1 -1 -1 2 5 4 6 10 9 10 11 12 11 12 13 13 12 13 13 14 15 16 16 16 18 17 15 15 15 15 16 17 18 15 15 16 16 15 14 13 14
1 0 -1 -0 -1 -0 1 6 4 4 8 10 8 8 8 10 10 11 11 12 12 12 15 15 16 18 18 18 18 15 17 15 16 15 16 15 16 14 14 13 13 14 14 14
1 1 0 -1 -0 -1 1 5 5 5 9 9 10 11 9 8 9 8 12 11 11 12 12 15 15 18 18 19 19 18 16 15 16 15 16 17 16 15 15 14 15 14 14 14
2 2 1 -0 -0 -0 1 4 5 6 8 12 11 7 10 8 8 8 8 9 10 11 11 14 15 17 15 18 17 17 17 15 16 18 17 16 16 16 15 15 15 16 16 15
2 2 2 0 -0 -0 1 2 4 4 8 13 12 10 9 8 9 9 9 10 12 13 14 15 17 16 15 17 16 20 19 19 17 17 15 16 18 17 16 17 17 17 17 18
3 3 2 1 0 0 3 7 4 4 5 11 14 10 11 9 9 10 11 11 12 13 15 16 15 14 15 18 20 20 19 18 18 17 18 18 18 18 17 18 17 17 18 18
4 3 2 1 1 4 6 7 6 3 4 12 15 13 11 10 10 10 11 12 13 13 15 15 15 15 16 18 21 20 20 20 19 17 17 18 19 20 18 17 17 17 18 18
4 3 2 2 3 4 7 5 3 4 7 11 18 17 13 10 12 12 11 13 13 13 14 14 15 15 17 22 20 20 19 19 20 19 18 19 19 18 18 17 17 18 18 18
5 4 3 7 8 11 10 2 4 7 9 16 17 18 18 11 12 12 12 13 15 13 15 14 14 18 23 22 20 21 21 20 20 19 19 19 19 19 19 18 18 19 19 18
6 8 11 13 12 3 6 11 14 15 15 13 15 14 17 14 12 13 13 14 16 18 15 14 19 22 21 22 21 21 21 19 18 19 19 19 20 20 20 20 19 19 19 19
14 18 14 10 5 11 17 20 18 19 19 13 13 15 16 12 15 14 14 16 17 19 17 17 19 21 23 21 21 20 20 19 19 19 19 19 20 20 20 20 20 19 19 19
11 9 6 8 15 19 19 27 19 17 16 14 16 15 14 14 13 16 16 18 18 21 18 21 23 23 21 20 21 20 20 20 21 20 21 20 20 21 21 22 21 20 20 19
9 14 18 18 19 22 23 23 22 20 17 15 15 16 15 15 16 20 19 21 22 17 24 24 26 21 20 21 20 20 20 20 20 20 20 20 21 20 24 24 21 22 23 20
18 22 22 22 20 17 16 17 16 15 16 16 16 15 18 19 20 24 23 20 20 26 27 26 25 22 21 20 19 20 22 22 22 21 21 21 22 23 21 21 22 23 22 20
23 21 25 23 16 14 14 14 14 14 15 16 16 15 18 20 23 23 22 24 28 27 25 23 22 20 20 20 20 22 23 27 26 26 24 24 24 24 23 22 24 23 22 21
24 24 24 19 22 23 21 20 18 15 17 16 14 15 17 18 21 23 27 27 27 24 21 20 19 20 20 21 21 22 25 26 26 28 24 23 26 25 25 24 24 24 23 22
27 27 20 22 22 24 23 22 20 17 17 16 15 16 17 16 20 23 20 22 20 19 19 18 18 21 23 22 19 19 19 22 24 28 26 26 28 31 29 25 23 22 21 21

GFSNW_con_lsi_291.txt.gz
Lid_Strength_Index
-2 -2 -2 -1 -2 -1 0 4 9 3 1 9 9 12 11 8 10 8 10 10 12 13 12 13 13 14 11 10 9 12 12 14 16 15 13 12 13 14 15 17 18 19 19 18
-2 -2 -2 -2 -1 -2 2 7 7 3 3 12 12 9 10 9 9 9 10 12 12 11 12 13 13 12 10 10 9 10 11 14 17 16 15 14 15 14 14 15 15 18 19 18
-1 -2 -2 -2 -2 -1 1 6 11 9 6 7 10 11 12 12 8 10 10 11 11 12 12 11 12 13 10 10 10 7 9 14 14 16 16 14 15 14 14 14 16 17 17 17
-1 -1 -2 -2 -2 -2 2 7 10 9 13 11 10 10 12 13 12 9 10 11 11 12 14 13 13 12 12 10 8 10 11 14 14 15 14 14 14 14 13 14 13 15 15 16
-1 -1 -2 -2 -2 -1 3 7 9 9 11 10 11 11 13 14 11 12 14 14 14 14 14 13 15 13 12 12 11 11 11 15 15 16 14 14 14 14 13 12 13 15 16 15
-1 -2 -2 -2 -2 -1 4 4 5 9 11 11 12 11 11 11 10 12 12 13 13 13 12 12 11 10 10 10 12 13 13 15 16 18 15 15 16 15 14 13 13 12 15 13
-1 -1 -2 -2 -1 -1 2 4 5 10 13 11 12 11 11 12 10 13 12 11 12 11 9 9 10 10 11 11 12 10 12 14 16 18 18 20 17 17 14 14 14 13 14 14
-0 -1 -1 -2 -1 -1 2 4 5 9 13 11 11 13 12 10 9 11 11 11 10 8 10 13 14 14 13 14 13 12 11 14 18 19 23 18 18 17 16 14 14 14 15 14
0 0 -1 -1 -1 -1 2 5 3 7 11 12 11 13 12 13 12 12 11 9 9 9 11 14 18 19 17 16 16 13 13 12 14 19 19 20 17 16 14 13 16 15 14 15
1 1 1 -0 -1 -1 2 4 3 7 11 9 10 13 14 12 12 12 12 11 11 10 13 16 17 18 15 17 17 17 15 14 16 17 19 18 16 15 14 16 16 14 13 14
2 1 1 1 -0 -0 2 4 3 7 10 9 9 10 13 13 12 13 13 11 12 12 13 14 16 17 16 16 17 15 15 16 16 16 17 19 15 14 15 15 15 14 13 13
4 2 2 1 0 -0 0 5 3 4 8 9 7 8 8 11 11 12 11 12 12 11 14 15 16 18 19 19 18 16 16 14 15 14 16 16 16 15 14 14 14 14 14 14
4 3 2 2 1 0 1 3 4 5 9 9 9 10 8 8 9 8 12 12 11 12 11 14 15 16 18 20 19 18 16 15 16 15 16 17 17 15 14 14 14 13 13 13
5 4 3 2 1 1 0 3 4 6 8 12 11 6 9 8 8 7 8 10 10 11 11 14 15 16 15 20 18 19 18 15 17 18 17 16 17 17 15 14 14 15 14 13
5 4 3 3 1 1 2 2 3 4 8 13 11 9 8 8 9 9 9 10 12 13 14 15 17 15 16 16 17 21 20 20 17 17 15 16 18 17 15 16 16 16 16 17
6 5 4 3 1 1 5 7 4 4 5 11 14 10 11 10 10 11 11 12 12 13 14 15 15 14 15 18 21 21 20 18 18 18 17 18 18 17 16 17 17 17 17 17
6 6 5 3 2 5 9 10 7 3 5 10 13 13 11 10 10 11 12 12 13 13 14 15 15 16 16 19 24 21 20 20 18 17 16 19 19 20 18 18 18 17 19 19
6 6 5 4 4 5 9 6 3 4 6 10 14 14 13 11 12 13 12 14 14 14 14 14 16 16 18 23 21 20 20 20 20 19 18 19 19 19 19 18 18 19 20 20
7 7 6 9 10 11 10 3 5 7 9 14 14 17 17 11 12 12 12 13 17 14 16 15 15 20 23 23 21 21 20 20 20 19 19 19 20 20 20 20 20 20 20 19
8 12 14 17 14 4 6 11 14 15 17 13 14 13 15 14 13 13 13 13 17 19 16 15 19 23 22 22 21 21 20 20 18 19 20 20 20 20 20 20 19 19 19 19
15 19 18 13 7 12 17 20 19 19 19 14 14 14 15 12 15 14 14 16 16 20 17 18 20 22 23 21 21 20 20 20 20 19 19 19 19 20 20 20 20 20 20 20
12 11 8 13 17 20 20 28 19 17 18 16 18 16 14 14 13 15 15 16 16 20 18 19 22 23 21 21 21 21 20 20 20 20 20 20 20 20 21 21 21 20 20 20
13 19 22 20 23 23 23 23 20 19 17 18 17 19 15 15 16 20 17 19 20 16 21 23 24 21 20 20 20 20 20 20 20 20 20 20 20 20 22 22 21 22 22 21
23 25 25 26 27 23 19 18 17 14 15 16 17 18 17 16 19 24 23 19 19 24 25 25 23 21 20 19 19 20 21 21 21 21 21 21 21 22 21 22 23 24 23 21
26 24 28 29 22 21 23 21 18 14 15 17 18 15 15 18 22 23 23 24 28 26 24 22 21 20 20 20 20 21 22 23 23 24 24 25 25 25 25 23 25 25 23 21
27 27 27 22 25 27 26 27 25 20 18 17 16 16 15 16 19 23 27 27 27 24 22 20 19 20 19 20 20 22 24 24 27 29 25 24 27 26 26 25 25 24 23 22
29 29 23 25 25 27 27 25 25 21 22 20 17 17 17 15 18 21 19 21 20 19 19 18 18 19 20 21 19 19 20 22 25 29 26 26 30 32 29 25 24 23 21 23

GFSNW_con_lsi_294.txt.gz
Lid_Strength_Index
-1 -1 -2 -2 -2 -2 -0 3 9 1 -0 9 9 11 9 7 9 9 10 10 11 10 10 12 11 11 9 7 7 10 9 10 14 12 11 10 9 11 11 13 15 14 13 13
-1 -1 -1 -2 -2 -2 1 6 6 1 2 12 11 9 9 8 10 9 10 11 9 8 10 12 11 10 8 7 7 9 9 11 15 14 12 11 12 11 10 11 11 14 14 13
-1 -1 -1 -2 -2 -2 1 6 10 6 5 6 10 10 10 10 8 9 8 9 8 10 10 9 11 11 9 8 8 6 7 10 12 14 13 11 13 12 11 11 13 13 13 12
-1 -1 -1 -2 -2 -2 1 5 8 8 11 10 9 9 10 11 11 8 8 9 10 10 12 11 11 10 10 9 8 8 9 11 10 10 11 10 11 11 11 12 11 12 11 12
-1 -1 -1 -1 -2 -2 2 7 8 7 9 9 10 10 11 11 11 12 11 11 10 10 12 12 13 11 10 11 9 9 9 14 11 13 11 11 12 11 10 10 10 10 11 12
1 -0 -1 -1 -2 -1 3 3 4 8 9 10 11 10 10 11 11 10 8 9 10 11 10 8 8 7 8 9 11 11 12 13 14 15 12 13 15 11 11 10 9 9 12 10
2 1 0 -0 -1 -1 1 3 5 9 12 10 11 10 10 11 11 13 9 9 9 8 6 6 7 8 9 9 11 10 12 13 14 16 14 19 12 12 10 10 10 10 10 11
3 2 1 0 -0 -1 1 2 5 8 12 10 10 11 11 11 10 11 9 8 8 6 7 11 13 12 12 12 12 10 9 12 15 17 16 13 13 14 13 12 12 10 10 12
4 3 2 1 1 -0 0 2 3 7 11 11 10 11 11 14 13 12 10 8 6 8 9 13 16 17 14 15 13 11 11 10 14 16 17 19 12 13 11 10 13 11 11 13
5 4 3 2 1 1 0 2 2 6 11 8 9 12 13 11 12 12 11 10 10 9 12 14 15 15 12 16 15 14 13 13 15 15 16 15 13 13 12 14 13 11 11 12
6 5 4 2 2 1 1 3 2 6 9 8 9 9 11 13 13 15 12 10 11 11 13 13 13 14 13 13 13 13 14 15 15 15 16 18 13 13 13 13 13 11 11 11
6 6 5 3 2 1 1 4 2 3 8 8 7 7 8 10 11 13 12 12 11 10 12 12 13 14 14 13 15 13 14 12 13 12 13 15 15 14 13 13 12 12 12 13
6 6 6 5 3 2 1 3 3 4 8 8 8 9 7 7 9 9 12 11 11 11 11 11 13 14 14 15 15 14 14 13 14 14 16 16 16 13 12 11 12 12 12 13
6 6 6 5 4 2 1 3 4 5 7 11 9 6 8 7 8 8 8 10 10 11 11 12 13 14 14 15 15 15 16 15 15 17 16 15 15 14 13 12 12 13 13 13
7 7 6 6 5 2 2 2 3 3 7 11 10 8 7 8 8 9 10 10 11 11 13 14 16 14 14 14 15 20 20 19 15 15 14 14 16 14 13 14 14 13 14 14
7 7 7 6 5 3 4 7 3 3 4 9 12 8 9 9 9 9 11 11 12 12 13 14 14 13 14 17 20 21 19 18 17 17 16 16 16 15 15 16 15 15 15 15
8 8 7 6 5 6 7 8 6 3 4 9 11 11 9 10 9 9 10 11 12 12 13 14 14 16 16 19 21 21 20 19 17 16 16 18 18 19 17 17 17 16 17 17
8 8 7 7 7 7 7 6 3 5 6 8 12 13 11 10 11 12 9 12 11 13 13 13 15 16 17 23 21 20 19 19 18 18 17 18 18 18 18 17 17 18 19 19
8 8 8 9 10 11 9 4 5 6 7 11 12 16 16 10 11 10 10 11 14 12 14 15 16 20 25 24 23 22 20 20 20 19 18 18 19 19 19 19 19 20 20 19
9 11 13 14 12 7 8 10 10 12 11 10 13 12 14 12 12 12 13 12 15 16 16 14 19 22 22 22 21 21 20 19 17 19 20 20 20 20 20 20 19 19 19 19
14 16 16 12 10 12 15 17 16 15 15 13 14 13 17 11 14 14 13 14 14 16 16 16 19 22 22 20 21 20 19 19 19 18 18 18 18 19 19 20 19 19 19 19
13 12 12 14 17 18 19 22 17 15 17 15 17 16 15 14 12 14 13 15 14 18 16 16 21 22 21 20 21 20 19 19 19 19 19 19 19 19 20 20 20 19 19 19
14 18 21 19 22 23 23 24 20 19 15 14 16 18 15 13 13 15 16 16 17 15 18 21 23 20 20 20 20 20 19 19 19 20 19 20 20 20 20 21 20 20 20 19
22 23 25 25 24 22 20 20 19 16 15 15 17 17 15 13 14 18 17 16 17 18 19 22 21 20 20 19 19 20 20 20 20 20 20 20 20 20 20 20 20 20 19 19
23 22 26 25 21 22 21 21 19 16 16 18 18 16 14 14 16 18 17 17 21 22 21 20 19 18 18 19 19 20 20 20 21 20 20 21 20 21 21 21 21 20 20 19
23 24 24 22 22 21 22 22 21 19 20 19 17 17 14 14 15 17 21 21 22 20 19 18 18 18 18 19 19 20 20 20 21 21 20 21 22 21 22 21 20 20 20 19
25 25 23 23 23 22 22 23 21 20 20 20 18 18 17 14 15 19 19 21 20 18 17 16 17 18 18 18 18 18 19 20 21 22 21 22 24 25 21 19 19 19 18 19

GFSNW_con_lsi_297.txt.gz
Lid_Strength_Index
0 -1 -1 -2 -2 -2 -0 3 8 1 -0 8 9 11 9 7 8 8 10 10 11 13 12 12 12 11 9 6 6 9 8 9 14 12 10 9 9 11 11 14 14 13 13 13
1 -0 -1 -1 -2 -2 1 5 6 1 1 12 10 8 9 7 9 9 10 11 10 11 12 13 10 9 7 6 7 8 8 10 15 14 11 10 11 10 10 10 10 13 14 13
2 1 -0 -1 -2 -2 1 5 10 5 4 6 9 10 10 10 6 8 9 10 10 11 12 10 11 10 8 7 7 6 7 9 11 15 13 11 13 11 11 10 13 13 12 11
3 2 0 -0 -1 -2 1 5 8 7 10 9 9 9 10 11 11 9 9 10 11 11 14 13 11 9 10 8 7 7 7 11 10 10 9 9 11 11 11 11 11 13 12 11
4 3 2 0 -0 -2 2 6 8 6 9 9 10 9 10 11 10 10 11 13 11 10 13 13 13 10 10 10 9 9 7 14 11 12 9 9 11 10 10 10 10 10 10 10
5 4 3 1 0 -0 3 3 4 7 9 9 10 10 10 11 9 9 9 10 12 11 10 8 7 7 7 8 10 10 12 13 15 15 10 12 15 11 10 10 9 9 11 9
5 5 4 2 1 1 2 3 5 8 11 10 10 10 10 10 10 11 10 10 11 8 5 5 6 7 8 8 9 9 12 12 14 17 14 19 11 9 8 9 9 8 8 7
6 5 4 3 2 1 3 2 5 8 11 9 10 10 10 10 10 10 10 10 8 5 6 11 14 13 12 11 10 9 9 13 16 16 16 13 11 12 11 10 11 8 8 8
6 6 5 4 3 2 2 3 2 6 10 10 9 10 10 12 13 11 9 7 5 5 9 12 16 17 14 15 13 10 10 10 14 16 18 19 11 10 8 8 13 8 8 9
6 6 6 5 4 3 3 3 2 6 10 8 8 11 11 10 12 13 12 10 8 7 11 14 15 15 11 16 16 15 14 14 16 16 17 15 10 10 9 14 12 8 8 10
6 7 6 6 5 4 4 4 2 5 8 8 8 9 10 11 12 15 12 13 10 11 13 14 14 14 12 13 11 13 14 15 16 15 17 18 11 12 12 12 11 10 9 10
7 7 7 7 6 5 4 5 2 2 7 8 6 6 7 9 10 12 12 12 12 11 12 11 11 13 13 12 16 12 14 11 13 12 13 13 14 14 12 12 11 11 10 10
7 7 7 7 7 6 5 4 4 4 7 8 7 8 6 7 8 8 14 11 11 12 11 11 12 13 12 14 13 14 14 14 13 13 15 15 14 13 12 11 11 12 12 12
7 7 7 7 7 6 5 5 4 5 7 11 8 5 7 6 7 7 9 11 11 11 11 12 12 13 13 14 14 14 16 15 14 16 16 15 15 13 12 12 12 13 12 12
7 7 7 7 6 6 5 5 5 5 8 11 9 6 6 6 7 7 8 10 11 11 12 13 14 13 13 14 14 19 19 19 15 14 13 15 15 13 12 13 13 13 13 14
7 7 7 7 6 6 7 10 6 5 5 9 11 6 8 8 7 7 9 10 10 11 12 13 13 13 14 16 20 20 19 18 17 17 15 14 15 13 12 13 13 13 13 14
8 8 7 7 6 7 9 11 9 5 5 9 10 10 8 9 8 8 9 9 10 11 12 13 14 16 16 18 22 20 19 18 16 15 16 18 16 17 15 15 15 14 15 15
8 8 8 8 8 7 9 8 7 7 6 7 12 13 11 9 10 11 9 10 10 12 12 13 16 17 18 23 23 21 20 18 18 18 17 18 17 17 17 16 16 17 18 17
8 8 9 8 10 12 11 8 8 7 8 11 12 16 15 9 11 10 10 10 12 11 14 16 16 21 25 24 23 23 21 19 19 18 18 18 18 18 18 18 18 19 19 19
9 9 10 12 11 9 10 10 11 11 10 10 14 12 15 12 12 11 12 10 13 14 15 14 18 22 21 21 21 21 20 20 17 19 20 19 20 20 20 20 19 19 20 20
11 13 14 10 10 11 14 16 16 15 16 14 14 14 16 12 14 14 11 14 13 15 15 15 18 22 22 20 21 20 20 19 20 19 19 19 19 20 20 20 20 20 20 20
12 12 11 12 15 16 18 20 17 18 19 15 16 16 14 14 11 13 12 14 13 16 14 15 21 22 21 20 21 20 20 20 20 20 20 19 19 19 20 20 19 19 19 18
12 14 17 17 18 22 23 24 21 20 17 16 16 18 14 13 10 13 15 15 15 14 16 21 22 20 20 20 19 20 19 18 19 19 19 19 19 19 19 20 19 19 19 19
18 18 23 21 21 20 20 20 19 17 17 17 18 17 15 12 13 15 16 13 15 16 19 22 20 20 20 19 19 20 20 20 20 20 19 20 20 20 20 20 19 19 20 19
18 17 22 21 19 19 18 19 19 17 17 18 19 17 16 14 13 14 15 16 18 20 21 19 18 18 18 19 19 20 20 20 20 20 20 20 20 20 21 20 19 19 19 19
18 19 20 20 20 19 19 19 20 18 19 19 18 18 16 14 14 15 18 18 21 20 18 17 16 18 18 19 19 20 20 20 20 20 19 20 20 20 20 19 19 19 19 19
19 20 19 19 20 19 20 21 20 19 19 19 19 20 19 15 16 18 18 20 19 17 16 16 16 17 18 18 18 18 18 19 19 19 19 20 21 20 19 19 19 19 18 19

GFSNW_con_lsi_300.txt.gz
Lid_Strength_Index
5 3 2 0 -1 -2 -0 4 9 1 0 8 9 11 9 7 8 7 9 10 12 13 13 14 13 13 10 8 8 10 9 11 15 14 11 10 11 12 12 15 17 16 17 16
5 5 3 1 -0 -1 2 6 6 1 2 12 11 8 9 8 8 8 10 11 10 10 12 14 12 12 7 7 8 10 9 13 17 16 13 12 12 11 11 12 13 16 18 17
6 5 4 2 1 -0 1 6 10 6 5 6 9 11 10 11 7 8 8 10 10 11 12 11 13 12 8 7 7 6 7 11 13 17 15 13 14 12 12 12 16 16 15 15
6 6 5 3 2 0 1 6 8 8 12 10 10 10 11 11 11 8 8 11 11 12 14 13 13 11 10 8 7 8 9 12 12 11 11 11 12 12 12 13 12 15 14 14
6 6 6 5 3 1 3 8 8 7 10 9 10 10 11 12 12 11 12 13 13 13 15 13 14 12 11 11 9 10 8 15 13 14 11 11 12 11 11 11 12 12 13 14
6 6 6 6 4 2 5 4 4 7 10 11 11 11 11 12 10 9 9 11 13 14 12 10 9 10 9 9 10 11 11 14 17 16 13 13 17 12 11 11 11 11 14 13
6 6 6 6 5 4 4 4 6 9 13 11 12 11 10 11 11 12 10 10 13 10 8 8 8 8 8 9 9 9 12 13 14 19 17 21 13 10 10 10 10 10 11 11
6 6 6 6 6 5 6 4 5 8 13 11 11 12 11 10 10 11 11 9 9 8 10 12 13 13 13 12 10 10 9 13 15 17 17 15 15 13 11 12 12 10 10 11
6 6 6 6 6 6 6 5 3 6 10 12 10 11 11 12 13 13 11 9 9 8 10 12 16 18 15 16 14 10 10 10 14 16 19 20 14 12 10 10 14 10 9 10
7 6 6 6 7 6 7 6 3 7 10 9 8 12 12 10 12 13 12 12 12 7 11 14 16 17 12 17 16 15 14 14 16 16 18 16 11 12 10 16 15 11 9 9
7 7 6 6 7 7 8 8 4 6 9 9 7 8 10 10 11 15 13 13 11 11 13 14 14 15 13 14 13 14 15 16 16 15 17 19 12 12 14 14 13 11 10 10
7 7 7 7 7 7 7 9 5 4 7 8 5 5 6 9 10 12 12 13 13 11 14 12 12 14 15 14 17 12 15 12 14 13 14 14 14 14 13 13 12 12 11 12
7 7 7 7 6 7 7 8 7 7 9 9 7 7 5 5 8 8 14 11 11 12 11 13 12 13 15 15 16 15 14 15 14 14 16 16 15 13 12 12 12 12 11 12
7 7 7 7 6 6 6 8 8 8 10 12 11 4 7 5 6 7 9 10 10 11 11 12 13 14 14 16 15 17 19 17 16 17 16 15 15 14 13 13 12 13 12 12
7 7 7 6 6 6 6 8 8 8 11 15 12 8 6 6 8 7 7 9 10 11 12 14 15 14 15 15 16 22 20 21 20 18 17 16 16 14 13 14 14 13 14 14
7 8 7 7 6 6 7 11 8 9 8 12 13 8 10 8 9 8 8 9 10 11 12 13 13 13 15 17 22 22 20 19 18 18 15 15 15 14 14 15 15 15 15 15
8 8 7 7 6 9 12 14 11 8 9 12 13 13 10 10 9 10 10 9 11 11 12 14 15 17 17 21 26 23 22 20 18 15 15 18 16 17 15 14 15 15 16 16
8 7 8 8 7 8 11 10 8 9 10 13 20 18 15 11 14 13 11 11 11 13 13 14 16 18 20 26 24 23 22 20 18 18 17 17 17 17 17 16 16 18 18 18
8 7 8 9 11 14 13 8 8 10 13 19 20 21 20 12 14 12 11 9 13 12 16 16 17 21 26 24 24 24 22 21 19 18 18 18 19 19 18 19 19 20 20 19
8 10 12 16 14 9 9 13 16 16 16 17 20 18 21 16 15 14 13 12 13 16 15 14 19 23 21 22 22 22 21 21 18 20 21 21 21 21 21 21 20 20 20 20
13 16 17 13 10 13 17 22 22 21 23 18 19 20 21 16 17 15 12 15 13 16 16 16 19 24 23 21 22 21 21 21 21 20 20 20 20 21 22 21 21 21 21 21
14 14 12 14 17 22 25 27 22 22 23 20 23 21 19 18 13 14 13 16 13 16 14 17 23 22 21 21 21 21 20 20 21 21 21 21 21 21 21 21 21 21 20 20
13 17 22 22 23 26 29 31 28 26 21 22 21 23 22 18 14 16 15 18 16 13 18 22 23 20 20 20 20 21 20 20 20 21 21 21 21 20 20 20 20 20 20 19
20 23 27 26 28 26 24 24 24 21 21 20 21 23 21 19 18 16 20 14 17 20 22 23 21 20 20 20 19 20 21 20 20 20 20 21 20 20 19 19 19 19 20 19
23 23 27 27 23 24 24 25 24 22 23 23 24 24 20 21 18 15 17 19 22 22 23 20 19 18 19 20 20 20 21 21 21 20 20 20 20 20 21 20 20 19 19 19
22 23 25 22 24 25 25 25 26 24 25 24 23 26 24 18 19 20 21 21 23 21 19 17 16 18 19 19 19 20 20 20 20 20 20 21 21 20 20 20 20 20 20 20
24 25 21 22 24 25 26 26 27 25 27 29 28 30 26 24 23 23 19 21 19 18 16 16 17 17 18 18 18 18 19 19 20 20 20 21 20 19 19 20 20 19 19 20

GFSNW_con_lsi_303.txt.gz
Lid_Strength_Index
6 6 5 5 3 1 2 6 12 2 2 10 8 15 10 7 8 7 10 10 11 13 12 14 14 14 11 8 8 11 10 12 16 14 12 10 12 12 13 15 17 17 18 17
6 6 6 5 4 2 4 10 8 3 4 15 16 11 10 9 9 9 9 10 10 10 12 14 13 12 8 8 8 10 10 13 17 16 13 12 12 12 10 13 13 17 18 17
6 6 6 6 5 3 5 10 14 10 8 9 15 13 12 11 8 8 9 9 10 12 12 11 13 13 10 9 8 7 8 12 14 17 15 13 15 12 13 13 18 15 14 14
6 6 6 6 5 4 7 10 10 9 16 14 13 12 15 14 14 9 9 11 12 13 16 15 13 12 12 9 8 8 9 13 13 13 12 11 12 13 12 13 12 15 15 14
6 6 6 6 6 5 8 10 9 8 16 16 12 14 18 16 14 12 14 13 12 13 16 15 17 14 13 12 9 10 9 14 15 15 12 11 13 11 12 12 12 12 14 14
6 6 6 6 6 6 11 9 7 8 13 18 19 18 16 13 11 11 10 10 12 14 13 12 12 10 11 10 12 12 12 13 16 16 15 15 17 12 12 12 11 12 14 12
6 6 6 6 6 7 9 9 8 10 16 17 18 14 12 13 11 12 11 10 11 10 9 9 9 9 9 9 10 10 12 13 16 19 17 20 14 11 10 11 10 11 11 12
6 6 6 6 6 6 9 9 9 10 15 16 12 15 16 12 11 12 11 10 8 8 10 13 13 13 12 11 10 10 9 12 15 18 18 15 15 13 12 13 13 11 11 12
6 6 6 6 6 6 10 11 7 9 13 17 12 12 15 14 14 14 12 9 8 9 11 14 16 18 15 16 14 9 10 10 14 16 19 20 14 13 11 11 14 10 9 11
6 6 6 6 7 7 10 11 7 9 12 12 11 12 12 10 12 14 14 12 12 8 12 14 15 16 13 16 16 15 14 14 16 16 17 16 13 12 12 15 14 12 10 10
6 6 7 6 7 7 9 11 9 9 12 11 9 7 10 10 11 15 13 13 12 12 14 13 14 15 14 14 13 14 15 16 16 15 18 19 14 12 14 13 13 12 12 11
7 7 7 6 6 6 7 11 7 7 10 13 8 7 6 8 8 11 12 13 13 11 13 14 15 14 13 14 17 12 15 13 14 13 14 15 15 15 13 13 13 13 13 12
7 7 6 6 6 6 7 8 9 11 14 15 14 11 5 4 6 7 14 12 10 11 10 13 14 14 14 15 17 17 16 18 15 15 15 16 15 13 13 12 13 13 12 11
7 7 6 6 6 6 6 9 9 12 14 15 17 7 9 6 6 7 8 10 9 10 11 13 13 15 14 15 16 19 21 19 20 17 16 15 14 13 13 13 12 13 12 12
7 7 6 6 6 6 7 8 9 10 15 21 18 13 9 7 9 10 8 8 10 11 12 14 16 16 17 15 20 25 23 23 23 21 18 17 16 14 13 13 14 14 14 15
7 7 7 7 6 6 8 11 9 10 11 14 20 14 14 12 11 10 9 10 11 11 12 14 14 14 16 19 24 23 22 21 21 21 18 16 15 14 14 15 15 15 15 16
7 7 7 7 7 11 14 16 13 8 9 13 21 21 16 14 14 13 12 10 12 12 13 15 15 18 18 23 27 24 23 22 21 18 17 17 17 17 15 15 15 14 15 16
8 7 8 7 7 8 13 12 8 10 13 19 27 25 20 16 19 17 14 14 12 14 14 15 17 19 21 26 25 24 23 22 19 18 17 17 17 17 17 16 17 18 18 18
8 8 8 11 13 17 15 8 9 12 16 25 25 27 27 17 20 17 15 12 13 12 16 15 17 22 26 24 24 24 23 23 21 19 19 18 19 19 19 18 19 19 20 19
9 12 16 21 17 9 10 16 20 20 21 22 24 22 26 21 21 21 17 16 15 17 14 13 20 23 21 21 22 22 22 22 21 21 21 21 21 21 21 21 20 20 20 20
16 21 22 16 11 17 23 27 26 26 27 21 23 24 24 20 23 21 16 17 17 17 14 16 20 24 22 21 21 21 21 21 21 21 21 21 21 21 21 21 20 20 20 20
15 15 14 17 21 26 27 34 25 24 25 22 26 25 24 23 17 18 18 18 15 17 14 18 23 22 20 21 21 21 21 21 22 21 22 21 21 21 21 21 21 21 20 20
15 22 26 25 27 28 31 32 29 28 24 26 26 25 26 24 20 21 19 21 17 14 21 22 22 19 19 20 20 21 21 21 21 22 21 21 22 21 21 22 21 21 21 20
23 27 28 28 32 29 26 26 26 23 24 23 25 28 28 26 23 21 24 18 19 24 27 25 20 19 19 19 20 21 21 21 21 21 21 21 22 22 21 20 19 19 20 19
24 25 28 29 24 28 28 28 26 24 26 28 29 29 25 26 25 21 23 24 26 24 24 20 18 18 19 19 20 20 21 21 21 21 21 20 20 20 20 19 19 18 19 19
24 26 27 24 25 29 28 30 29 28 29 28 26 32 31 28 28 29 30 28 28 24 22 17 17 18 18 18 18 19 19 20 20 21 20 20 20 20 20 19 19 19 19 19
24 25 23 24 25 25 26 29 29 28 29 32 33 34 31 30 33 32 28 29 25 22 22 18 17 17 18 18 17 17 18 19 19 19 19 19 19 19 19 20 19 19 19 19

GFSNW_con_lsi_306.txt.gz
Lid_Strength_Index
6 6 6 5 5 4 6 10 14 4 3 12 16 18 11 8 9 8 9 10 12 13 12 14 14 14 12 8 8 11 10 13 15 14 12 11 12 11 13 15 17 18 18 17
6 6 6 6 5 5 7 11 12 5 7 15 14 12 11 10 10 9 10 11 10 11 12 15 13 13 10 9 10 10 10 13 17 16 13 13 12 12 10 11 14 17 18 17
6 6 6 6 5 5 9 16 18 12 11 12 14 13 13 12 9 9 10 11 10 12 14 11 15 14 11 11 10 8 8 12 14 17 15 14 15 12 13 12 16 15 14 14
6 6 6 6 6 5 10 16 15 12 19 17 16 12 12 14 14 10 10 12 12 14 18 16 16 13 14 12 9 9 10 15 13 13 13 12 13 12 13 13 12 14 13 14
6 6 6 6 6 6 12 16 14 15 11 16 13 17 18 18 15 13 14 16 13 13 16 16 18 16 15 14 10 10 9 15 13 15 12 13 14 12 11 12 11 12 14 14
6 6 6 6 6 7 13 11 12 12 16 22 20 20 14 14 12 12 11 11 12 14 13 12 12 12 12 12 13 13 13 14 15 18 14 14 16 14 13 13 13 11 14 12
6 6 6 6 6 7 10 10 11 14 21 20 21 17 14 14 13 13 11 11 12 11 8 10 10 11 12 13 12 11 13 13 14 17 17 21 14 12 11 12 11 11 13 11
6 6 6 6 6 7 11 10 12 12 18 19 16 14 16 13 12 13 12 11 9 8 10 14 17 13 13 13 12 12 11 13 15 18 17 15 15 13 13 14 14 12 11 12
6 6 6 6 6 7 11 12 9 11 15 19 15 15 18 14 15 16 14 10 8 8 11 16 17 17 16 16 13 10 10 11 14 16 19 20 13 12 12 11 14 11 11 10
6 6 6 6 6 6 10 11 8 10 14 14 16 15 13 10 12 14 16 13 12 9 13 15 15 16 13 16 16 15 14 14 16 16 17 16 14 12 11 16 15 12 10 10
6 6 6 6 6 6 10 11 10 10 12 13 13 10 11 11 14 14 15 14 13 13 15 15 15 14 13 16 15 14 15 16 16 15 18 19 15 13 14 13 14 12 12 11
6 6 6 6 6 6 8 12 7 8 11 14 11 10 8 9 8 10 14 15 13 12 14 15 15 17 14 14 17 11 15 16 15 14 15 16 15 14 13 13 14 13 13 12
6 6 6 6 6 6 6 10 11 12 14 16 16 14 8 6 7 6 13 15 10 11 10 13 15 17 15 17 17 17 20 21 17 15 16 18 15 14 13 13 14 13 13 12
6 7 6 6 6 6 7 12 11 13 15 17 18 11 12 9 9 9 8 10 9 10 10 13 16 15 15 16 19 23 24 22 24 18 19 18 16 15 15 14 13 14 14 14
7 7 6 6 6 6 9 10 11 11 15 21 19 14 11 13 13 14 11 9 9 10 13 13 16 16 17 17 21 26 24 25 26 26 22 20 19 17 15 14 15 14 15 16
7 7 7 7 6 6 10 14 9 11 10 15 19 16 18 16 15 15 13 10 11 10 11 14 14 15 17 20 24 23 23 22 22 24 21 20 19 16 14 15 16 15 16 16
7 7 7 7 7 12 15 16 13 8 9 14 24 24 19 17 17 17 16 14 13 13 13 16 16 18 19 23 28 24 23 23 23 21 19 18 17 18 16 15 16 15 16 16
8 8 8 7 7 10 14 13 8 11 16 21 30 26 22 18 22 21 17 17 16 13 13 14 17 19 20 26 24 23 23 23 22 21 20 18 17 17 17 17 17 18 18 18
9 8 7 12 15 18 16 8 11 14 17 27 27 29 28 19 22 20 20 19 19 13 16 16 17 21 25 23 23 23 23 24 24 22 19 20 20 20 19 18 19 19 20 19
10 13 17 22 19 10 12 18 22 22 24 24 25 23 27 22 23 23 21 21 20 19 15 15 20 22 20 20 21 22 22 22 22 23 23 22 22 21 21 20 20 20 20 20
16 20 21 17 12 18 24 28 27 28 28 22 24 25 25 21 26 24 19 22 20 21 17 19 21 23 21 20 21 20 21 21 22 22 22 22 22 22 21 21 20 20 20 20
14 14 15 17 21 26 27 34 26 25 25 23 26 27 25 24 20 21 21 22 20 22 19 24 25 24 19 20 20 20 21 21 21 22 23 22 22 22 22 22 21 21 20 20
15 21 25 23 26 26 29 31 29 28 25 27 27 28 28 26 24 26 22 26 24 18 26 25 25 20 19 20 20 20 20 20 21 21 21 22 22 22 22 22 21 21 21 21
21 25 25 26 29 28 27 26 26 24 24 25 28 29 29 29 28 25 27 23 24 31 32 28 24 23 21 19 19 20 21 20 21 21 21 22 22 22 22 22 21 21 22 21
21 22 22 27 23 28 29 30 26 25 26 27 31 30 28 30 31 27 27 31 35 32 30 26 22 21 21 19 19 19 20 20 21 21 21 21 21 22 22 21 21 20 20 20
22 23 22 22 22 27 28 31 29 28 29 26 28 35 34 31 32 32 34 34 34 29 28 24 24 22 21 19 18 18 18 19 19 19 20 20 20 20 20 19 19 19 19 19
23 22 20 20 21 21 23 25 28 28 28 30 32 33 31 33 35 34 30 31 28 28 27 23 22 22 20 18 16 16 17 18 18 18 18 19 18 18 18 19 19 18 18 18